Estación de Remehue INIA
Ultimos registro cada 15 minutos 55
| N° | Estación | Fecha / Hora | Temperatura | Humedad | Lluvia | Velocidad | Dirección | Radiación | Presion |
| 55 | Remehue INIA | 02-05-2026 13:30 | 11,4 | 56,3 | 0 | 0,5 | 107 | 481 | 1011 |
| 54 | Remehue INIA | 02-05-2026 13:15 | 10,8 | 62,2 | 0 | 0,6 | 68 | 405 | 1012 |
| 53 | Remehue INIA | 02-05-2026 13:00 | 10,9 | 57,9 | 0 | 0,6 | 75 | 497 | 1012 |
| 52 | Remehue INIA | 02-05-2026 12:45 | 10,4 | 63,4 | 0 | 0,7 | 11 | 491 | 1013 |
| 51 | Remehue INIA | 02-05-2026 12:30 | 10 | 70,4 | 0 | 0,7 | 74 | 496 | 1013 |
| 50 | Remehue INIA | 02-05-2026 12:15 | 9,1 | 74,6 | 0 | 0,8 | 91 | 498 | 1013 |
| 49 | Remehue INIA | 02-05-2026 12:00 | 8,3 | 81,1 | 0 | 0,8 | 152 | 486 | 1013 |
| 48 | Remehue INIA | 02-05-2026 11:45 | 7,5 | 87,5 | 0 | 0,9 | 164 | 450 | 1014 |
| 47 | Remehue INIA | 02-05-2026 11:30 | 6,7 | 95,6 | 0 | 0,6 | 173 | 416 | 1014 |
| 46 | Remehue INIA | 02-05-2026 11:15 | 6,1 | 97,7 | 0 | 0,5 | 153 | 406 | 1014 |
| 45 | Remehue INIA | 02-05-2026 11:00 | 5,2 | 99,3 | 0 | 0,6 | 174 | 374 | 1014 |
| 44 | Remehue INIA | 02-05-2026 10:45 | 4,8 | 98,9 | 0 | 0 | 193 | 403 | 1014 |
| 43 | Remehue INIA | 02-05-2026 10:30 | 3,4 | 100 | 0 | 0 | 152 | 293 | 1015 |
| 42 | Remehue INIA | 02-05-2026 10:15 | 2,5 | 100 | 0 | 0 | 262 | 287 | 1015 |
| 41 | Remehue INIA | 02-05-2026 10:00 | 1,6 | 100 | 0 | 0,1 | 190 | 176 | 1015 |
| 40 | Remehue INIA | 02-05-2026 09:45 | 1 | 99,7 | 0 | 0,2 | 192 | 140 | 1015 |
| 39 | Remehue INIA | 02-05-2026 09:30 | 0,9 | 99,2 | 0 | 0 | 0 | 153 | 1015 |
| 38 | Remehue INIA | 02-05-2026 09:15 | 0,1 | 99,9 | 0,1 | 0 | 0 | 158 | 1016 |
| 37 | Remehue INIA | 02-05-2026 09:00 | -0,5 | 99,7 | 0,1 | 0 | 0 | 118 | 1016 |
| 36 | Remehue INIA | 02-05-2026 08:45 | -0,8 | 99,4 | 0 | 0 | 0 | 84 | 1016 |
| 35 | Remehue INIA | 02-05-2026 08:30 | -1,1 | 99,8 | 0 | 0,1 | 184 | 50 | 1016 |
| 34 | Remehue INIA | 02-05-2026 08:15 | -1,2 | 99,4 | 0 | 0 | 0 | 25 | 1016 |
| 33 | Remehue INIA | 02-05-2026 08:00 | -1,1 | 99,4 | 0 | 0 | 0 | 11 | 1016 |
| 32 | Remehue INIA | 02-05-2026 07:45 | -1,2 | 99,3 | 0 | 0 | 0 | 1 | 1016 |
| 31 | Remehue INIA | 02-05-2026 07:30 | -1,1 | 99,3 | 0 | 0 | 168 | 0 | 1016 |
| 30 | Remehue INIA | 02-05-2026 07:15 | -1,1 | 99,4 | 0 | 0 | 0 | 0 | 1016 |
| 29 | Remehue INIA | 02-05-2026 07:00 | -1,1 | 99,3 | 0 | 0 | 0 | 0 | 1016 |
| 28 | Remehue INIA | 02-05-2026 06:45 | -1 | 99,3 | 0 | 0 | 0 | 0 | 1017 |
| 27 | Remehue INIA | 02-05-2026 06:30 | -1,1 | 99,2 | 0 | 0 | 0 | 0 | 1017 |
| 26 | Remehue INIA | 02-05-2026 06:15 | -1 | 99,2 | 0 | 0 | 0 | 0 | 1017 |
| 25 | Remehue INIA | 02-05-2026 06:00 | -0,9 | 99,2 | 0 | 0 | 188 | 0 | 1017 |
| 24 | Remehue INIA | 02-05-2026 05:45 | -0,8 | 99 | 0 | 0 | 0 | 0 | 1017 |
| 23 | Remehue INIA | 02-05-2026 05:30 | -0,7 | 99,2 | 0 | 0 | 0 | 0 | 1017 |
| 22 | Remehue INIA | 02-05-2026 05:15 | -0,4 | 99 | 0 | 0 | 175 | 0 | 1018 |
| 21 | Remehue INIA | 02-05-2026 05:00 | 0,2 | 98,8 | 0 | 0 | 0 | 0 | 1018 |
| 20 | Remehue INIA | 02-05-2026 04:45 | -0,3 | 99,7 | 0 | 0 | 0 | 0 | 1018 |
| 19 | Remehue INIA | 02-05-2026 04:30 | 0,4 | 98,3 | 0 | 0 | 158 | 0 | 1018 |
| 18 | Remehue INIA | 02-05-2026 04:15 | 0,4 | 99,6 | 0 | 0 | 160 | 0 | 1018 |
| 17 | Remehue INIA | 02-05-2026 04:00 | 0,5 | 99,3 | 0 | 0 | 0 | 0 | 1018 |
| 16 | Remehue INIA | 02-05-2026 03:45 | 0 | 99,4 | 0 | 0 | 0 | 0 | 1018 |
| 15 | Remehue INIA | 02-05-2026 03:30 | 0,2 | 98,1 | 0 | 0,1 | 76 | 0 | 1019 |
| 14 | Remehue INIA | 02-05-2026 03:15 | -0,3 | 99,2 | 0 | 0 | 0 | 0 | 1019 |
| 13 | Remehue INIA | 02-05-2026 03:00 | 0,2 | 98,9 | 0 | 0 | 0 | 0 | 1019 |
| 12 | Remehue INIA | 02-05-2026 02:45 | 0,2 | 99,3 | 0 | 0 | 0 | 0 | 1019 |
| 11 | Remehue INIA | 02-05-2026 02:30 | 0,6 | 98,8 | 0 | 0 | 0 | 0 | 1019 |
| 10 | Remehue INIA | 02-05-2026 02:15 | 0,9 | 98,9 | 0 | 0 | 0 | 0 | 1019 |
| 9 | Remehue INIA | 02-05-2026 02:00 | 1,2 | 98,4 | 0 | 0 | 0 | 0 | 1019 |
| 8 | Remehue INIA | 02-05-2026 01:45 | 1,2 | 99,1 | 0 | 0 | 0 | 0 | 1019 |
| 7 | Remehue INIA | 02-05-2026 01:30 | 1,7 | 98,3 | 0 | 0 | 0 | 0 | 1019 |
| 6 | Remehue INIA | 02-05-2026 01:15 | 1,9 | 98,7 | 0 | 0 | 0 | 0 | 1019 |
| 5 | Remehue INIA | 02-05-2026 01:00 | 2,2 | 98,5 | 0 | 0 | 0 | 0 | 1019 |
| 4 | Remehue INIA | 02-05-2026 00:45 | 2,6 | 98 | 0 | 0 | 0 | 0 | 1019 |
| 3 | Remehue INIA | 02-05-2026 00:30 | 2,8 | 97,6 | 0 | 0 | 0 | 0 | 1020 |
| 2 | Remehue INIA | 02-05-2026 00:15 | 2,7 | 98,9 | 0 | 0 | 0 | 0 | 1020 |
| 1 | Remehue INIA | 02-05-2026 00:00 | 3,2 | 97,7 | 0 | 0,2 | 187 | 0 | 1020 |